OPS-SAT
1 44878U 19092F 23159.51892596 .00025416 00000-0 76809-3 0 9998
2 44878 97.4756 348.1584 0009947 160.5598 199.6026 15.34171534192466
TO-108
1 44881U 19093C 23159.59008360 .00001078 00000-0 14045-3 0 9991
2 44881 97.8618 238.1874 0016160 105.1890 255.1112 14.82518490187529
FloripaSat 1
1 44885U 19093G 23159.59325408 .00003825 00000-0 44572-3 0 9990
2 44885 97.8676 240.8503 0015124 107.9363 252.3503 14.85748366187679
RS-44
1 44909U 19096E 23159.54421025 .00000011 00000-0 50366-6 0 9992
2 44909 82.5218 353.6902 0216920 206.9389 152.0319 12.79720981161059
BY70-2
1 45857U 20042B 23159.61605634 .00017359 00000-0 17946-2 0 9992
2 45857 97.9247 239.4864 0008526 45.8790 314.3127 14.90146978158261
UPMSat 2
1 46276U 20061E 23159.15315273 .00008284 00000-0 35187-3 0 9990
2 46276 97.3461 226.9230 0001959 60.7238 299.4195 15.23312569152915
AmicalSat
1 46287U 20061R 23159.12355666 .00012470 00000-0 58391-3 0 9993
2 46287 97.4000 225.8039 0003679 116.9707 243.1904 15.19854847152333
SALSAT
1 46495U 20068K 23159.36023772 .00003869 00000-0 25740-3 0 9991
2 46495 97.7696 107.2707 0016577 144.8363 215.3962 15.07651702147748
CAPE 3
1 47309U 21002A 23159.28680587 .00032584 00000-0 79545-3 0 9997
2 47309 60.6776 94.3341 0013674 182.2429 177.8608 15.40601188132917
AO-109
1 47311U 21002C 23159.21137094 .00025563 00000-0 67041-3 0 9990
2 47311 60.6813 93.0352 0013599 172.2655 187.8652 15.38525232132907
MiTEE 1
1 47314U 21002F 23159.05770723 .01186734 76773-3 19988-2 0 9995
2 47314 60.6562 55.6200 0009746 233.6626 126.3599 16.02430036133544
ExoCube 2
1 47319U 21002L 23159.40171444 .00023670 00000-0 63689-3 0 9997
2 47319 60.6792 94.4231 0013781 177.7577 182.3581 15.37770127132868
UVSQ-SAT
1 47438U 21006AB 23159.10309867 .00015411 00000-0 63499-3 0 9995
2 47438 97.3841 216.3422 0011512 113.5760 246.6688 15.24122345131265
YUSAT 1
1 47439U 21006AC 23159.14332276 .00019589 00000-0 75000-3 0 9991
2 47439 97.3850 217.1032 0010955 112.6492 247.5906 15.26533316131319
SOMP 2b
1 47445U 21006AJ 23159.15298202 .00014364 00000-0 60502-3 0 9996
2 47445 97.3808 215.6573 0011413 117.7050 242.5346 15.23395234131245
IDEASSat
1 47458U 21006AX 23159.59083300 .00012908 00000-0 55339-3 0 9993
2 47458 97.3902 216.8644 0010749 115.7141 244.5207 15.22828155131291
CubeSX-Sirius-HSE
1 47951U 21022V 23159.61288623 .00009285 00000-0 52328-3 0 9996
2 47951 97.4976 57.1080 0019088 10.5798 349.5831 15.13259580121733
CubeSX-HSE
1 47952U 21022W 23159.65259963 .00009683 00000-0 54454-3 0 9990
2 47952 97.4979 57.1932 0018961 10.1079 350.0530 15.13327297121745
KSU-Cubesat
1 47954U 21022Y 23159.24679450 .00010450 00000-0 57403-3 0 9995
2 47954 97.4983 57.1579 0018344 11.0974 349.0659 15.14156780121421
GRBAlpha
1 47959U 21022AD 23159.63970217 .00009517 00000-0 53410-3 0 9994
2 47959 97.4982 57.2618 0018842 10.7806 349.3825 15.13407075120560
Orbicraft-Zorkiy
1 47960U 21022AE 23159.60087886 .00010729 00000-0 59046-3 0 9992
2 47960 97.5008 57.6381 0018439 9.4976 350.6601 15.14078517121269
STECCO
1 47962U 21022AG 23159.63920011 .00018195 00000-0 84844-3 0 9992
2 47962 97.4978 59.9791 0012537 2.8797 357.2508 15.19853293120745
DO-111
1 47963U 21022AH 23159.27632436 .00233424 00000-0 29872-2 0 9997
2 47963 97.4954 67.4156 0002951 64.6830 295.4731 15.58409232121208
MO-110
1 47964U 21022AJ 23159.29850636 .00018818 00000-0 85695-3 0 9998
2 47964 97.4993 60.2259 0014359 357.8148 2.3021 15.20640454120726
FEES
1 48082U 21022AL 23159.22164887 .00034624 00000-0 13130-2 0 9996
2 48082 97.4984 61.3150 0009558 356.5818 3.5354 15.26747612120491
TUBIN
1 48900U 21059X 23159.59357051 .00008254 00000-0 39411-3 0 9993
2 48900 97.5995 293.1392 0007998 316.4392 43.6210 15.19286287107875
IT-SPINS
1 49017U 21013G 23159.27727053 .00031054 00000-0 72560-3 0 9997
2 49017 51.5913 122.3905 0005438 314.7009 45.3532 15.41887085108337
LEDSAT
1 49069U 21073D 23159.06651558 .00009288 00000-0 51107-3 0 9991
2 49069 97.4821 230.0957 0025208 149.4098 210.8610 15.13996905 99520
CUTE
1 49263U 21088D 23159.13421722 .00009207 00000-0 59286-3 0 9996
2 49263 97.5436 225.0901 0016350 294.1873 65.7646 15.08464996 92926
TeikyoSat 4
1 49396U 21102B 23159.60548156 .00001975 00000-0 15387-3 0 9991
2 49396 97.5157 211.8617 0017549 110.5206 249.7904 15.02217801 86482
Z-Sat
1 49399U 21102E 23159.57385553 .00003956 00000-0 28302-3 0 9992
2 49399 97.4832 212.9349 0023301 98.9970 261.3895 15.04778728 86591
KOSEN 1
1 49402U 21102H 23159.39229396 .00004073 00000-0 27809-3 0 9991
2 49402 97.4769 213.2546 0022647 89.0565 271.3257 15.06521457 86636
HO-113
1 50466U 21131B 23159.61673418 .00000603 00000-0 21005-3 0 9995
2 50466 98.5519 241.1881 0004893 152.3196 207.8252 14.38911297 76123
Tevel-3
1 50988U 22002E 23159.58308474 .00018213 00000-0 73641-3 0 9994
2 50988 97.4330 226.6087 0006411 256.3791 103.6733 15.24765149 77454
Tevel-8
1 50989U 22002F 23159.60146082 .00018690 00000-0 75703-3 0 9993
2 50989 97.4345 226.6852 0006492 255.2687 104.7831 15.24699065 77456
Tevel-5
1 50998U 22002Q 23159.59790781 .00019475 00000-0 76809-3 0 9992
2 50998 97.4323 226.9968 0007720 250.8288 109.2115 15.25575260 77485
Tevel-6
1 50999U 22002R 23159.59643134 .00019433 00000-0 76645-3 0 9994
2 50999 97.4321 226.9901 0007722 250.5193 109.5211 15.25575265 77480
Tevel-1
1 51013U 22002AF 23159.59262806 .00018680 00000-0 75619-3 0 9998
2 51013 97.4323 226.5624 0006370 255.8150 104.2380 15.24719867 77450
Grizu-263a
1 51025U 22002AT 23159.47460816 .00077755 00000-0 16931-2 0 9998
2 51025 97.4472 231.8133 0007978 233.9179 126.1331 15.43972021 77717
NO-116
1 51031U 22002AZ 23158.90733396 .00031417 00000-0 10160-2 0 9991
2 51031 97.4451 228.7682 0008473 251.0258 109.0066 15.31978515 77485
IRIS-A
1 51044U 22002BN 23159.18214347 .00009136 00000-0 43658-3 0 9998
2 51044 97.4343 224.7770 0006615 268.1254 91.9223 15.19223309 77297
Tevel-7
1 51062U 22002CG 23159.60255712 .00018635 00000-0 75444-3 0 9998
2 51062 97.4340 226.6598 0006492 254.7993 105.2527 15.24715869 77454
Tevel-4
1 51063U 22002CH 23159.60834709 .00018215 00000-0 73867-3 0 9999
2 51063 97.4340 226.6497 0006485 254.7746 105.2774 15.24664661 77458
Tevel-2
1 51069U 22002CP 23159.65055195 .00018628 00000-0 75295-3 0 9999
2 51069 97.4327 226.6475 0006418 255.6570 104.3955 15.24769903 77463
DELFI-PQ
1 51074U 22002CU 23159.39884872 .00038009 00000-0 11061-2 0 9993
2 51074 97.4588 231.5828 0008185 276.3369 83.6942 15.35295020 77656
SO-115
1 51080U 22002DA 23159.41455223 .00022331 00000-0 80884-3 0 9998
2 51080 97.4593 230.1263 0008991 288.3990 71.6271 15.28361767 77550
SO-114
1 51081U 22002DB 23159.40338914 .00022529 00000-0 81188-3 0 9992
2 51081 97.4597 230.0876 0009208 288.0180 72.0056 15.28524333 77550
OreSat0
1 52017U 22026K 23159.51098809 .00016450 00000-0 66432-3 0 9997
2 52017 97.5089 161.8786 0024695 113.2386 247.1455 15.24562488 68223
Planetum 1
1 52738U 22057G 23159.26284473 .00013116 00000-0 61009-3 0 9998
2 52738 97.5379 275.2280 0007067 30.0620 330.1019 15.20062752 57306
Foresail-1
1 52766U 22057AL 23159.63136702 .00008505 00000-0 40555-3 0 9990
2 52766 97.5495 276.4877 0011846 6.5920 353.5468 15.19285652 57381
SNUGLITE 2
1 52899U 22065F 23159.37397186 .00001187 00000-0 26069-3 0 9995
2 52899 98.0682 304.4615 0006873 238.9096 121.1430 14.59284878 49575
